RYR48FZ GCTS-LEZL

Flight info

Callsign RYR48FZ
Flight time 1h 52m
Altitude 36000
Route KORAL UG5 ESS UN871 ADUBI DCT VJF
Aircraft B738/M-SDE2E3FGHIRWXY/LB1

Departure

Time 2026-04-21 04:58
Airport Tenerife Sur Airport (GCTS)

Arrival

Time 2026-04-21 06:50
Airport Seville Airport (LEZL)
Time Latitude Longitude Altitude Speed Heading
2026-04-21 04:41 28.04697 -16.57729 216 ft 0 kts 339°
2026-04-21 04:50 28.04688 -16.57725 220 ft 3 kts 339°
2026-04-21 04:50 28.04670 -16.57717 218 ft 3 kts 339°
2026-04-21 04:51 28.04651 -16.57708 218 ft 3 kts 333°
2026-04-21 04:51 28.04634 -16.57697 216 ft 3 kts 313°
2026-04-21 04:51 28.04624 -16.57680 216 ft 3 kts 274°
2026-04-21 04:51 28.04625 -16.57666 216 ft 1 kts 248°
2026-04-21 04:52 28.04631 -16.57649 216 ft 3 kts 248°
2026-04-21 04:52 28.04634 -16.57641 216 ft 0 kts 248°
2026-04-21 04:54 28.04633 -16.57643 216 ft 1 kts 248°
2026-04-21 04:54 28.04625 -16.57666 216 ft 5 kts 248°
2026-04-21 04:54 28.04590 -16.57695 216 ft 8 kts 184°
2026-04-21 04:55 28.04517 -16.57673 219 ft 13 kts 180°
2026-04-21 04:55 28.04457 -16.57750 218 ft 16 kts 249°
2026-04-21 04:55 28.04408 -16.57893 213 ft 23 kts 249°
2026-04-21 04:55 28.04351 -16.58058 213 ft 22 kts 249°
2026-04-21 04:56 28.04294 -16.58218 214 ft 22 kts 248°
2026-04-21 04:56 28.04240 -16.58374 217 ft 21 kts 249°
2026-04-21 04:56 28.04193 -16.58527 215 ft 20 kts 256°
2026-04-21 04:56 28.04142 -16.58682 217 ft 22 kts 249°
2026-04-21 04:57 28.04081 -16.58842 210 ft 20 kts 235°
2026-04-21 04:57 28.03981 -16.58822 203 ft 18 kts 116°
2026-04-21 04:57 28.03952 -16.58684 199 ft 19 kts 90°
2026-04-21 04:57 28.04036 -16.58427 203 ft 69 kts 69°
2026-04-21 04:58 28.04308 -16.57653 188 ft 140 kts 68°
2026-04-21 04:58 28.04725 -16.56443 385 ft 181 kts 69°
2026-04-21 04:58 28.05187 -16.55006 946 ft 205 kts 71°
2026-04-21 04:58 28.05671 -16.53523 1826 ft 206 kts 69°
2026-04-21 04:59 28.06252 -16.51922 2122 ft 230 kts 69°
2026-04-21 04:59 28.06870 -16.50210 2592 ft 238 kts 69°
2026-04-21 04:59 28.07495 -16.48447 3130 ft 243 kts 68°
2026-04-21 04:59 28.08125 -16.46654 3690 ft 245 kts 68°
2026-04-21 05:00 28.08690 -16.44820 4239 ft 249 kts 77°
2026-04-21 05:00 28.08923 -16.42896 4792 ft 251 kts 84°
2026-04-21 05:00 28.09178 -16.38836 5624 ft 271 kts 86°
2026-04-21 05:01 28.09311 -16.36645 6039 ft 284 kts 86°
2026-04-21 05:01 28.09457 -16.34387 6740 ft 288 kts 85°
2026-04-21 05:01 28.09609 -16.32108 7467 ft 291 kts 85°
2026-04-21 05:01 28.09769 -16.29801 8132 ft 297 kts 85°
2026-04-21 05:02 28.09934 -16.27483 8807 ft 301 kts 84°
2026-04-21 05:02 28.10538 -16.25173 9473 ft 305 kts 62°
2026-04-21 05:02 28.11513 -16.23064 10136 ft 309 kts 60°
2026-04-21 05:02 28.12580 -16.20855 10360 ft 330 kts 60°
2026-04-21 05:03 28.13720 -16.18502 10554 ft 351 kts 60°
2026-04-21 05:03 28.14908 -16.16026 10991 ft 361 kts 61°
2026-04-21 05:03 28.16105 -16.13497 11576 ft 366 kts 61°
2026-04-21 05:03 28.17307 -16.10933 12222 ft 370 kts 62°
2026-04-21 05:04 28.18516 -16.08336 12831 ft 374 kts 62°
2026-04-21 05:04 28.19735 -16.05703 13454 ft 379 kts 62°
2026-04-21 05:04 28.20950 -16.03069 13994 ft 383 kts 62°
2026-04-21 05:04 28.22192 -16.00372 14566 ft 387 kts 62°
2026-04-21 05:05 28.23449 -15.97639 15139 ft 390 kts 62°
2026-04-21 05:05 28.24708 -15.94898 15705 ft 393 kts 62°
2026-04-21 05:05 28.25963 -15.92164 16261 ft 397 kts 62°
2026-04-21 05:05 28.27247 -15.89363 16813 ft 401 kts 62°
2026-04-21 05:06 28.28543 -15.86535 17360 ft 405 kts 62°
2026-04-21 05:06 28.29848 -15.83684 17906 ft 408 kts 62°
2026-04-21 05:06 28.31163 -15.80811 18413 ft 412 kts 62°
2026-04-21 05:06 28.32478 -15.77936 18893 ft 415 kts 62°
2026-04-21 05:07 28.33830 -15.74978 19387 ft 418 kts 62°
2026-04-21 05:07 28.35156 -15.72075 19854 ft 421 kts 62°
2026-04-21 05:07 28.36513 -15.69100 20345 ft 424 kts 62°
2026-04-21 05:07 28.37876 -15.66111 20818 ft 427 kts 62°
2026-04-21 05:08 28.39247 -15.63103 21279 ft 430 kts 62°
2026-04-21 05:08 28.40630 -15.60065 21745 ft 434 kts 62°
2026-04-21 05:08 28.42021 -15.57007 22184 ft 437 kts 62°
2026-04-21 05:08 28.43404 -15.53965 22619 ft 440 kts 62°
2026-04-21 05:09 28.44811 -15.50869 23045 ft 443 kts 62°
2026-04-21 05:09 28.46235 -15.47732 23477 ft 446 kts 62°
2026-04-21 05:09 28.47668 -15.44573 23837 ft 449 kts 62°
2026-04-21 05:09 28.49107 -15.41397 24199 ft 452 kts 62°
2026-04-21 05:10 28.50535 -15.38244 24556 ft 454 kts 62°
2026-04-21 05:10 28.51983 -15.35043 24919 ft 456 kts 62°
2026-04-21 05:10 28.53439 -15.31823 25269 ft 459 kts 62°
2026-04-21 05:10 28.54905 -15.28578 25610 ft 462 kts 62°
2026-04-21 05:11 28.56379 -15.25314 25953 ft 464 kts 62°
2026-04-21 05:11 28.57856 -15.22039 26295 ft 466 kts 62°
2026-04-21 05:11 28.59320 -15.18790 26609 ft 468 kts 62°
2026-04-21 05:11 28.60810 -15.15482 26931 ft 471 kts 62°
2026-04-21 05:12 28.62316 -15.12134 27235 ft 474 kts 62°
2026-04-21 05:12 28.63821 -15.08788 27541 ft 476 kts 63°
2026-04-21 05:12 28.65316 -15.05460 27842 ft 478 kts 63°
2026-04-21 05:12 28.66837 -15.02070 28136 ft 481 kts 63°
2026-04-21 05:13 28.68364 -14.98665 28424 ft 483 kts 63°
2026-04-21 05:13 28.69898 -14.95243 28702 ft 486 kts 63°
2026-04-21 05:13 28.71438 -14.91802 28978 ft 488 kts 63°
2026-04-21 05:13 28.72983 -14.88348 29252 ft 490 kts 63°
2026-04-21 05:14 28.74535 -14.84875 29508 ft 492 kts 63°
2026-04-21 05:14 28.76094 -14.81384 29765 ft 495 kts 63°
2026-04-21 05:14 28.77637 -14.77926 30001 ft 497 kts 63°
2026-04-21 05:14 28.79206 -14.74405 30219 ft 499 kts 63°
2026-04-21 05:15 28.80780 -14.70870 30436 ft 500 kts 63°
2026-04-21 05:15 28.82360 -14.67322 30662 ft 502 kts 63°
2026-04-21 05:15 28.83935 -14.63777 30953 ft 501 kts 63°
2026-04-21 05:15 28.85510 -14.60233 31264 ft 500 kts 63°
2026-04-21 05:16 28.87081 -14.56693 31562 ft 499 kts 63°
2026-04-21 05:16 28.88649 -14.53155 31814 ft 499 kts 63°
2026-04-21 05:16 28.90224 -14.49601 32065 ft 500 kts 63°
2026-04-21 05:16 28.91791 -14.46059 32340 ft 499 kts 63°
2026-04-21 05:17 28.93341 -14.42555 32618 ft 498 kts 63°
2026-04-21 05:17 28.94903 -14.39019 32903 ft 497 kts 63°
2026-04-21 05:17 28.96462 -14.35487 33165 ft 497 kts 63°
2026-04-21 05:17 28.98016 -14.31962 33394 ft 497 kts 63°
2026-04-21 05:18 28.99576 -14.28424 33646 ft 497 kts 63°
2026-04-21 05:18 29.01109 -14.24941 33901 ft 496 kts 63°
2026-04-21 05:18 29.02660 -14.21416 34098 ft 496 kts 63°
2026-04-21 05:18 29.04215 -14.17875 34278 ft 497 kts 63°
2026-04-21 05:19 29.05767 -14.14340 34456 ft 497 kts 64°
2026-04-21 05:19 29.07317 -14.10808 34648 ft 496 kts 64°
2026-04-21 05:19 29.08749 -14.07541 34830 ft 496 kts 64°
2026-04-21 05:19 29.10299 -14.04000 35017 ft 496 kts 64°
2026-04-21 05:20 29.11842 -14.00474 35196 ft 496 kts 64°
2026-04-21 05:20 29.13383 -13.96949 35369 ft 495 kts 64°
2026-04-21 05:20 29.14924 -13.93420 35560 ft 495 kts 64°
2026-04-21 05:20 29.16464 -13.89890 35726 ft 495 kts 64°
2026-04-21 05:21 29.17984 -13.86403 35845 ft 495 kts 64°
2026-04-21 05:21 29.19527 -13.82860 35877 ft 498 kts 64°
2026-04-21 05:21 29.22630 -13.75725 35893 ft 503 kts 64°
2026-04-21 05:22 29.25765 -13.68504 35888 ft 508 kts 64°
2026-04-21 05:22 29.28933 -13.61194 35887 ft 513 kts 64°
2026-04-21 05:23 29.32108 -13.53854 35884 ft 517 kts 64°
2026-04-21 05:23 29.35283 -13.46500 35878 ft 519 kts 64°
2026-04-21 05:24 29.38485 -13.39070 35875 ft 519 kts 64°
2026-04-21 05:24 29.41685 -13.31628 35870 ft 519 kts 65°
2026-04-21 05:25 29.44861 -13.24231 35872 ft 518 kts 65°
2026-04-21 05:25 29.48036 -13.16819 35868 ft 517 kts 65°
2026-04-21 05:26 29.51206 -13.09405 35869 ft 516 kts 65°
2026-04-21 05:26 29.54366 -13.02000 35869 ft 515 kts 65°
2026-04-21 05:27 29.57498 -12.94648 35870 ft 515 kts 65°
2026-04-21 05:27 29.60638 -12.87261 35871 ft 514 kts 65°
2026-04-21 05:28 29.63764 -12.79892 35870 ft 514 kts 65°
2026-04-21 05:28 29.66900 -12.72488 35871 ft 514 kts 65°
2026-04-21 05:29 29.70032 -12.65077 35872 ft 514 kts 65°
2026-04-21 05:29 29.73166 -12.57731 35868 ft 515 kts 62°
2026-04-21 05:30 29.77093 -12.50814 35872 ft 515 kts 55°
2026-04-21 05:30 29.81189 -12.44080 35869 ft 516 kts 55°
2026-04-21 05:31 29.85279 -12.37256 35867 ft 517 kts 56°
2026-04-21 05:31 29.89304 -12.30439 35868 ft 517 kts 56°
2026-04-21 05:32 29.93353 -12.23556 35869 ft 518 kts 56°
2026-04-21 05:32 29.97402 -12.16668 35870 ft 518 kts 56°
2026-04-21 05:33 30.01429 -12.09815 35867 ft 519 kts 56°
2026-04-21 05:33 30.05510 -12.02905 35868 ft 519 kts 56°
2026-04-21 05:34 30.09567 -11.96057 35865 ft 519 kts 56°
2026-04-21 05:34 30.13652 -11.89146 35866 ft 519 kts 56°
2026-04-21 05:35 30.17703 -11.82272 35867 ft 519 kts 56°
2026-04-21 05:35 30.21085 -11.76523 35867 ft 519 kts 56°
2026-04-21 05:36 30.25153 -11.69594 35865 ft 519 kts 56°
2026-04-21 05:36 30.29210 -11.62674 35866 ft 519 kts 56°
2026-04-21 05:37 30.33245 -11.55779 35866 ft 519 kts 56°
2026-04-21 05:37 30.37282 -11.48870 35866 ft 519 kts 56°
2026-04-21 05:38 30.41338 -11.41916 35863 ft 519 kts 56°
2026-04-21 05:38 30.45366 -11.34999 35862 ft 520 kts 56°
2026-04-21 05:39 30.49415 -11.28031 35864 ft 520 kts 56°
2026-04-21 05:39 30.53462 -11.21056 35862 ft 520 kts 57°
2026-04-21 05:40 30.57480 -11.14120 35863 ft 520 kts 57°
2026-04-21 05:40 30.61519 -11.07133 35864 ft 520 kts 57°
2026-04-21 05:41 30.65518 -11.00206 35863 ft 520 kts 57°
2026-04-21 05:41 30.69546 -10.93213 35862 ft 520 kts 57°
2026-04-21 05:42 30.73554 -10.86246 35862 ft 520 kts 57°
2026-04-21 05:42 30.77577 -10.79237 35862 ft 520 kts 57°
2026-04-21 05:43 30.81592 -10.72232 35864 ft 519 kts 57°
2026-04-21 05:43 30.85579 -10.65264 35860 ft 519 kts 57°
2026-04-21 05:44 30.89583 -10.58253 35860 ft 519 kts 57°
2026-04-21 05:44 30.93579 -10.51241 35857 ft 519 kts 57°
2026-04-21 05:45 30.97548 -10.44267 35861 ft 518 kts 57°
2026-04-21 05:45 31.01534 -10.37250 35858 ft 518 kts 57°
2026-04-21 05:46 31.05498 -10.30260 35863 ft 518 kts 57°
2026-04-21 05:46 31.09475 -10.23232 35859 ft 518 kts 57°
2026-04-21 05:47 31.13450 -10.16196 35861 ft 517 kts 57°
2026-04-21 05:47 31.17387 -10.09214 35856 ft 517 kts 58°
2026-04-21 05:48 31.21351 -10.02176 35858 ft 517 kts 58°
2026-04-21 05:48 31.25279 -9.95188 35851 ft 516 kts 58°
2026-04-21 05:49 31.29226 -9.88152 35843 ft 516 kts 58°
2026-04-21 05:49 31.33143 -9.81156 35832 ft 516 kts 58°
2026-04-21 05:50 31.37084 -9.74108 35834 ft 516 kts 57°
2026-04-21 05:50 31.41745 -9.67804 35830 ft 515 kts 40°
2026-04-21 05:51 31.47620 -9.63059 35844 ft 512 kts 28°
2026-04-21 05:51 31.53742 -9.58774 35840 ft 512 kts 28°
2026-04-21 05:52 31.59854 -9.54456 35835 ft 514 kts 28°
2026-04-21 05:52 31.65964 -9.50063 35833 ft 514 kts 29°
2026-04-21 05:53 31.72028 -9.45667 35841 ft 515 kts 29°
2026-04-21 05:53 31.78141 -9.41227 35830 ft 515 kts 29°
2026-04-21 05:54 31.84209 -9.36818 35829 ft 516 kts 29°
2026-04-21 05:54 31.90327 -9.32367 35837 ft 515 kts 29°
2026-04-21 05:55 31.96444 -9.27910 35827 ft 516 kts 29°
2026-04-21 05:55 32.02534 -9.23466 35825 ft 516 kts 29°
2026-04-21 05:56 32.08653 -9.18994 35828 ft 516 kts 29°
2026-04-21 05:56 32.14741 -9.14538 35821 ft 516 kts 29°
2026-04-21 05:57 32.20822 -9.10078 35821 ft 516 kts 29°
2026-04-21 05:57 32.26944 -9.05582 35823 ft 516 kts 29°
2026-04-21 05:58 32.33050 -9.01091 35818 ft 516 kts 29°
2026-04-21 05:58 32.39121 -8.96617 35818 ft 516 kts 29°
2026-04-21 05:59 32.45225 -8.92113 35818 ft 516 kts 29°
2026-04-21 06:00 32.54343 -8.85370 35816 ft 516 kts 30°
2026-04-21 06:00 32.60409 -8.80876 35814 ft 516 kts 30°
2026-04-21 06:01 32.66500 -8.76355 35813 ft 516 kts 30°
2026-04-21 06:01 32.72566 -8.71845 35815 ft 516 kts 30°
2026-04-21 06:02 32.78660 -8.67308 35815 ft 516 kts 30°
2026-04-21 06:02 32.84740 -8.62773 35816 ft 516 kts 30°
2026-04-21 06:03 32.90826 -8.58227 35818 ft 516 kts 30°
2026-04-21 06:03 32.96870 -8.53704 35811 ft 516 kts 30°
2026-04-21 06:04 33.02965 -8.49135 35816 ft 516 kts 30°
2026-04-21 06:04 33.09017 -8.44591 35818 ft 516 kts 30°
2026-04-21 06:05 33.15108 -8.40010 35815 ft 516 kts 30°
2026-04-21 06:05 33.21195 -8.35426 35811 ft 516 kts 30°
2026-04-21 06:06 33.27249 -8.30873 35806 ft 516 kts 30°
2026-04-21 06:06 33.33328 -8.26297 35797 ft 516 kts 30°
2026-04-21 06:07 33.39379 -8.21732 35794 ft 516 kts 30°
2026-04-21 06:07 33.45465 -8.17131 35788 ft 516 kts 30°
2026-04-21 06:08 33.51551 -8.12522 35783 ft 516 kts 30°
2026-04-21 06:08 33.57586 -8.07944 35781 ft 516 kts 30°
2026-04-21 06:09 33.63653 -8.03334 35768 ft 516 kts 30°
2026-04-21 06:09 33.69736 -7.98704 35762 ft 516 kts 30°
2026-04-21 06:10 33.75818 -7.94068 35764 ft 516 kts 30°
2026-04-21 06:10 33.81850 -7.89461 35758 ft 517 kts 30°
2026-04-21 06:11 33.87924 -7.84814 35757 ft 517 kts 30°
2026-04-21 06:11 33.93995 -7.80162 35753 ft 517 kts 30°
2026-04-21 06:12 34.00056 -7.75509 35748 ft 516 kts 30°
2026-04-21 06:12 34.06087 -7.70871 35743 ft 516 kts 30°
2026-04-21 06:13 34.12117 -7.66227 35741 ft 516 kts 30°
2026-04-21 06:13 34.18174 -7.61553 35738 ft 515 kts 30°
2026-04-21 06:14 34.24220 -7.56880 35737 ft 515 kts 30°
2026-04-21 06:14 34.30217 -7.52237 35736 ft 514 kts 30°
2026-04-21 06:15 34.36253 -7.47556 35734 ft 514 kts 30°
2026-04-21 06:15 34.42283 -7.42870 35731 ft 513 kts 30°
2026-04-21 06:16 34.48261 -7.38218 35734 ft 513 kts 30°
2026-04-21 06:16 34.54272 -7.33532 35731 ft 512 kts 30°
2026-04-21 06:17 34.60279 -7.28840 35733 ft 512 kts 30°
2026-04-21 06:17 34.66245 -7.24172 35736 ft 512 kts 31°
2026-04-21 06:18 34.72240 -7.19474 35735 ft 512 kts 31°
2026-04-21 06:18 34.78229 -7.14772 35735 ft 512 kts 31°
2026-04-21 06:19 34.84178 -7.10094 35737 ft 511 kts 31°
2026-04-21 06:19 34.90163 -7.05378 35741 ft 511 kts 31°
2026-04-21 06:20 34.96118 -7.00678 35740 ft 511 kts 31°
2026-04-21 06:20 35.02040 -6.95993 35711 ft 496 kts 31°
2026-04-21 06:21 35.07724 -6.91489 35745 ft 486 kts 31°
2026-04-21 06:21 35.13409 -6.86982 35324 ft 486 kts 31°
2026-04-21 06:21 35.16237 -6.84736 34959 ft 481 kts 31°
2026-04-21 06:22 35.19027 -6.82517 34565 ft 478 kts 31°
2026-04-21 06:22 35.20872 -6.81050 34306 ft 475 kts 31°
2026-04-21 06:22 35.24539 -6.78129 33804 ft 472 kts 31°
2026-04-21 06:22 35.27288 -6.75938 33359 ft 469 kts 31°
2026-04-21 06:23 35.29095 -6.74497 33077 ft 467 kts 31°
2026-04-21 06:23 35.31807 -6.72333 32672 ft 463 kts 31°
2026-04-21 06:23 35.34498 -6.70184 32293 ft 460 kts 32°
2026-04-21 06:23 35.37175 -6.68079 32081 ft 451 kts 31°
2026-04-21 06:24 35.40688 -6.65376 31603 ft 447 kts 30°
2026-04-21 06:24 35.42470 -6.64013 31378 ft 444 kts 31°
2026-04-21 06:24 35.45056 -6.62035 31003 ft 441 kts 31°
2026-04-21 06:24 35.47661 -6.60038 30631 ft 439 kts 31°
2026-04-21 06:25 35.50244 -6.58051 30275 ft 436 kts 31°
2026-04-21 06:25 35.52806 -6.56076 29915 ft 434 kts 31°
2026-04-21 06:25 35.55331 -6.54124 29508 ft 431 kts 31°
2026-04-21 06:25 35.57864 -6.52164 29094 ft 428 kts 31°
2026-04-21 06:26 35.60372 -6.50222 28720 ft 424 kts 31°
2026-04-21 06:26 35.62893 -6.48269 28329 ft 421 kts 31°
2026-04-21 06:26 35.65327 -6.46381 27965 ft 417 kts 31°
2026-04-21 06:26 35.67780 -6.44477 27588 ft 415 kts 31°
2026-04-21 06:27 35.70210 -6.42591 27215 ft 412 kts 31°
2026-04-21 06:27 35.72626 -6.40713 26853 ft 409 kts 31°
2026-04-21 06:27 35.75019 -6.38852 26496 ft 406 kts 31°
2026-04-21 06:27 35.77404 -6.36996 26131 ft 403 kts 31°
2026-04-21 06:28 35.79771 -6.35153 25778 ft 401 kts 32°
2026-04-21 06:28 35.82126 -6.33318 25428 ft 398 kts 32°
2026-04-21 06:28 35.84428 -6.31503 25106 ft 396 kts 33°
2026-04-21 06:28 35.86697 -6.29604 24871 ft 391 kts 34°
2026-04-21 06:29 35.88928 -6.27685 24618 ft 387 kts 34°
2026-04-21 06:29 35.91123 -6.25783 24299 ft 385 kts 34°
2026-04-21 06:29 35.93289 -6.23911 23970 ft 383 kts 34°
2026-04-21 06:29 35.95477 -6.22026 23624 ft 382 kts 34°
2026-04-21 06:30 35.97661 -6.20151 23240 ft 381 kts 34°
2026-04-21 06:30 35.99844 -6.18278 22845 ft 380 kts 34°
2026-04-21 06:30 36.01989 -6.16440 22476 ft 378 kts 34°
2026-04-21 06:30 36.04149 -6.14588 22118 ft 376 kts 34°
2026-04-21 06:31 36.06297 -6.12747 21757 ft 374 kts 34°
2026-04-21 06:31 36.08429 -6.10917 21417 ft 371 kts 34°
2026-04-21 06:31 36.10528 -6.09114 21076 ft 369 kts 34°
2026-04-21 06:31 36.12638 -6.07301 20731 ft 368 kts 34°
2026-04-21 06:32 36.14736 -6.05497 20392 ft 366 kts 34°
2026-04-21 06:32 36.16832 -6.03693 20048 ft 364 kts 34°
2026-04-21 06:32 36.18883 -6.01927 19715 ft 363 kts 34°
2026-04-21 06:32 36.20960 -6.00138 19379 ft 361 kts 34°
2026-04-21 06:33 36.23047 -5.98385 19042 ft 360 kts 28°
2026-04-21 06:33 36.25372 -5.97340 18758 ft 352 kts
2026-04-21 06:33 36.27758 -5.96954 18502 ft 348 kts
2026-04-21 06:33 36.30172 -5.96666 18178 ft 347 kts
2026-04-21 06:34 36.32583 -5.96394 17816 ft 346 kts
2026-04-21 06:34 36.34982 -5.96111 17459 ft 345 kts
2026-04-21 06:34 36.37374 -5.95814 17111 ft 344 kts
2026-04-21 06:34 36.39733 -5.95511 16772 ft 343 kts
2026-04-21 06:35 36.42108 -5.95200 16433 ft 342 kts
2026-04-21 06:35 36.44473 -5.94887 16109 ft 340 kts
2026-04-21 06:35 36.46836 -5.94575 15782 ft 339 kts
2026-04-21 06:35 36.49179 -5.94289 15444 ft 337 kts 359°
2026-04-21 06:36 36.51462 -5.94598 15116 ft 331 kts 345°
2026-04-21 06:36 36.53700 -5.95200 14797 ft 329 kts 343°
2026-04-21 06:36 36.55939 -5.95828 14468 ft 328 kts 343°
2026-04-21 06:36 36.58171 -5.96449 14143 ft 327 kts 344°
2026-04-21 06:37 36.60396 -5.97056 13817 ft 327 kts 344°
2026-04-21 06:37 36.62621 -5.97655 13466 ft 327 kts 344°
2026-04-21 06:37 36.64817 -5.98240 13122 ft 326 kts 345°
2026-04-21 06:37 36.67035 -5.98828 12781 ft 325 kts 345°
2026-04-21 06:38 36.69246 -5.99411 12454 ft 324 kts 345°
2026-04-21 06:38 36.71446 -5.99992 12110 ft 323 kts 345°
2026-04-21 06:38 36.73640 -6.00571 11801 ft 321 kts 345°
2026-04-21 06:38 36.75819 -6.01146 11485 ft 320 kts 345°
2026-04-21 06:39 36.77995 -6.01720 11169 ft 319 kts 345°
2026-04-21 06:39 36.80166 -6.02294 10852 ft 318 kts 346°
2026-04-21 06:39 36.82335 -6.02832 10532 ft 318 kts 349°
2026-04-21 06:39 36.84529 -6.03209 10233 ft 317 kts 351°
2026-04-21 06:40 36.86689 -6.03517 9998 ft 314 kts 352°
2026-04-21 06:40 36.88842 -6.03812 9863 ft 307 kts 352°
2026-04-21 06:40 36.90958 -6.04108 9583 ft 305 kts 352°
2026-04-21 06:40 36.93068 -6.04410 9215 ft 306 kts 352°
2026-04-21 06:41 36.95175 -6.04718 8843 ft 308 kts 352°
2026-04-21 06:41 36.97310 -6.05034 8469 ft 309 kts 352°
2026-04-21 06:41 36.99457 -6.05355 8100 ft 310 kts 352°
2026-04-21 06:41 37.01602 -6.05676 7736 ft 311 kts 352°
2026-04-21 06:42 37.03754 -6.06000 7382 ft 312 kts 352°
2026-04-21 06:42 37.05880 -6.06320 7030 ft 312 kts 352°
2026-04-21 06:42 37.08069 -6.06651 6669 ft 313 kts 353°
2026-04-21 06:42 37.10213 -6.06975 6321 ft 313 kts 353°
2026-04-21 06:43 37.12380 -6.07303 5963 ft 313 kts 353°
2026-04-21 06:43 37.14548 -6.07631 5597 ft 313 kts 353°
2026-04-21 06:43 37.16722 -6.07960 5229 ft 314 kts 353°
2026-04-21 06:43 37.18862 -6.08285 4875 ft 313 kts 353°
2026-04-21 06:44 37.21028 -6.08614 4524 ft 313 kts 353°
2026-04-21 06:44 37.23201 -6.08943 4142 ft 313 kts 353°
2026-04-21 06:44 37.25364 -6.09269 3784 ft 313 kts 353°
2026-04-21 06:44 37.27527 -6.09598 3420 ft 311 kts 353°
2026-04-21 06:45 37.29659 -6.09923 3059 ft 304 kts 353°
2026-04-21 06:45 37.31714 -6.10237 2793 ft 293 kts 353°
2026-04-21 06:45 37.33678 -6.10536 2645 ft 279 kts 353°
2026-04-21 06:45 37.35509 -6.10815 2657 ft 256 kts 353°
2026-04-21 06:46 37.37215 -6.11076 2548 ft 237 kts 353°
2026-04-21 06:46 37.38795 -6.11314 2443 ft 220 kts 356°
2026-04-21 06:46 37.40206 -6.10962 2272 ft 199 kts 38°
2026-04-21 06:46 37.40913 -6.09663 2257 ft 176 kts 77°
2026-04-21 06:47 37.41294 -6.08229 2306 ft 170 kts 71°
2026-04-21 06:47 37.41571 -6.06826 2275 ft 163 kts 85°
2026-04-21 06:47 37.41705 -6.05407 2236 ft 165 kts 87°
2026-04-21 06:47 37.41760 -6.03963 2070 ft 164 kts 91°
2026-04-21 06:48 37.41771 -6.02535 1854 ft 160 kts 91°
2026-04-21 06:48 37.41773 -6.01146 1644 ft 157 kts 91°
2026-04-21 06:48 37.41776 -5.99787 1429 ft 154 kts 90°
2026-04-21 06:48 37.41778 -5.98439 1240 ft 155 kts 89°
2026-04-21 06:49 37.41772 -5.97082 1035 ft 158 kts 91°
2026-04-21 06:49 37.41749 -5.95695 776 ft 161 kts 89°
2026-04-21 06:49 37.41767 -5.94289 588 ft 159 kts 86°
2026-04-21 06:49 37.41773 -5.92899 391 ft 160 kts 88°
2026-04-21 06:50 37.41780 -5.91511 177 ft 157 kts 89°
2026-04-21 06:50 37.41788 -5.90193 107 ft 136 kts 89°
2026-04-21 06:50 37.41793 -5.89284 104 ft 72 kts 90°
2026-04-21 06:50 37.41797 -5.88850 107 ft 23 kts 85°
2026-04-21 06:51 37.41883 -5.88762 108 ft 13 kts
2026-04-21 06:51 37.41967 -5.88764 109 ft 9 kts 329°
2026-04-21 06:51 37.41984 -5.88841 107 ft 10 kts 265°
2026-04-21 06:51 37.41982 -5.88932 105 ft 11 kts 270°
2026-04-21 06:52 37.41983 -5.89039 104 ft 14 kts 271°
2026-04-21 06:52 37.41984 -5.89171 104 ft 17 kts 270°
2026-04-21 06:52 37.41984 -5.89334 101 ft 20 kts 269°
2026-04-21 06:52 37.41983 -5.89527 101 ft 23 kts 270°
2026-04-21 06:53 37.41982 -5.89725 104 ft 22 kts 269°
2026-04-21 06:53 37.42025 -5.89897 104 ft 22 kts 328°
2026-04-21 06:53 37.42153 -5.89898 103 ft 19 kts 46°
2026-04-21 06:53 37.42224 -5.89825 100 ft 5 kts
2026-04-21 06:54 37.42273 -5.89838 99 ft 9 kts 344°
2026-04-21 06:54 37.42302 -5.89848 99 ft 0 kts 344°